WS6A-13 Weather Reports


Display with metric or nautical units.
time (UTC)temp
F
wind
direction
speed
MPH
gust
MPH
rain 1hr
in
rain 24hr
in
rain mn
in
humidity
%
barometer
mb
20260505101503 58 59 0.0 3.0 0.05 0.06 0.06 89 1007.0
20260505100004 59 59 0.0 2.0 0.04 0.05 0.05 87 1006.7
20260505094504 60 69 0.0 3.0 0.03 0.04 0.04 85 1006.9
20260505093004 61 46 0.0 0.0 0.00 0.01 0.01 83 1007.0
20260505090004 60 229 0.0 0.0 0.00 0.01 0.01 84 1006.4
20260505084504 60 229 0.0 0.0 0.01 0.01 0.01 83 1005.9
20260505083003 60 229 0.0 0.0 0.01 0.01 0.01 83 1005.7
20260505081504 61 229 0.0 0.0 0.01 0.01 0.01 80 1005.6
20260505080004 62 229 0.0 0.0 0.01 0.01 0.01 77 1005.3
20260505074504 63 229 0.0 0.0 0.00 0.00 0.00 77 1005.2
20260505073004 63 229 0.0 0.0 0.00 0.00 0.00 72 1004.9
20260505071504 64 229 0.0 0.0 0.00 0.00 0.00 72 1005.0
20260505070005 64 229 0.0 0.0 0.00 0.00 0.00 71 1005.0
20260505064503 64 229 0.0 0.0 0.00 0.00 0.00 70 1004.8
20260505061503 65 229 0.0 0.0 0.00 0.00 0.00 70 1004.7
20260505060004 64 229 0.0 0.0 0.00 0.00 0.00 70 1004.5
20260505054503 64 229 0.0 0.0 0.00 0.00 0.00 69 1004.2
20260505053004 65 228 0.0 0.0 0.00 0.00 0.00 69 1004.1
20260505051504 65 227 0.0 0.0 0.00 0.00 0.00 68 1004.2
20260505041504 63 266 0.0 0.0 0.00 0.00 0.00 75 1004.7
20260505040004 63 266 0.0 0.0 0.00 0.00 0.00 75 1004.7
20260505034504 63 266 0.0 0.0 0.00 0.00 0.00 75 1004.8
20260505033004 63 266 0.0 0.0 0.00 0.00 0.00 74 1004.9
20260505031504 63 266 0.0 0.0 0.00 0.00 0.00 75 1004.8
20260505030004 63 254 0.0 0.0 0.00 0.00 0.00 73 1004.8
20260505024504 64 254 0.0 0.0 0.00 0.00 0.00 72 1004.7
20260505021504 65 254 0.0 0.0 0.00 0.00 0.00 71 1004.2
20260505020004 65 254 0.0 0.0 0.00 0.00 0.00 70 1004.0
20260505014504 66 254 0.0 0.0 0.00 0.00 0.00 68 1003.9
20260505013004 66 254 0.0 0.0 0.00 0.00 0.00 66 1003.8
20260505011504 67 254 0.0 0.0 0.00 0.00 0.00 65 1003.7
20260505003004 71 247 0.0 2.0 0.00 0.00 0.00 56 1003.6
20260505001504 72 236 1.0 3.0 0.00 0.00 0.00 55 1003.6
20260505000004 73 245 0.0 5.0 0.00 0.00 0.00 53 1003.7
20260504233003 71 206 0.0 1.0 0.00 0.00 0.00 68 1004.0
20260504231504 71 230 0.0 0.0 0.00 0.00 0.00 64 1004.0
20260504230003 71 230 0.0 0.0 0.00 0.00 0.00 62 1004.3
20260504224504 72 230 0.0 3.0 0.00 0.00 0.00 61 1004.6
20260504223024 73 253 0.0 0.0 0.00 0.00 0.00 59 1004.6
20260504220004 72 238 0.0 3.0 0.00 0.00 0.00 59 1004.6
20260504214504 73 279 0.0 3.0 0.00 0.00 0.00 59 1005.1
20260504213004 73 247 1.0 5.0 0.00 0.00 0.00 59 1005.2
20260504211504 72 229 1.0 3.0 0.00 0.00 0.00 60 1005.4
20260504210004 71 244 0.0 3.0 0.00 0.00 0.00 62 1005.6
20260504204504 70 236 0.0 3.0 0.00 0.00 0.00 65 1005.8
20260504203004 70 59 0.0 2.0 0.00 0.00 0.00 70 1006.3
20260504201503 67 25 0.0 0.0 0.00 0.00 0.00 76 1006.4
20260504200004 65 26 0.0 0.0 0.00 0.00 0.00 79 1006.3
20260504194504 65 26 0.0 1.0 0.00 0.00 0.00 79 1006.6
20260504193004 65 310 0.0 0.0 0.00 0.00 0.00 76 1007.1
20260504191503 67 207 0.0 8.0 0.00 0.00 0.00 70 1006.9
20260504184504 69 266 0.0 7.0 0.00 0.00 0.00 65 1007.3
20260504180004 70 199 1.0 5.0 0.00 0.00 0.00 63 1006.4
20260504174503 69 245 1.0 3.0 0.00 0.00 0.00 66 1006.6
20260504173004 69 263 0.0 3.0 0.00 0.00 0.00 64 1006.7
20260504171504 68 258 0.0 2.0 0.00 0.00 0.00 68 1006.9